Regional Weather Roundup
Issued by NWS Memphis, TN

Home | Current Version | Previous Version | Text Only | Print | Product List | Glossary On
Versions: 1 2 3 4 5 6 7 8 9 10 11 12 13 14 15 16 17 18 19 20 21 22 23 24 25 26 27 28 29 30 31 32 33 34 35 36 37 38 39 40 41 42 43 44 45 46 47 48 49 50
000
ASUS44 KMEG 041110
RWRMEG
MEMPHIS CWA HOURLY WEATHER ROUNDUP
NATIONAL WEATHER SERVICE MEMPHIS TN
600 AM CDT FRI SEP 04 2015

...WEST TENNESSEE...

CITY           SKY/WX    TMP DP  RH WIND       PRES   REMARKS
MEMPHIS INTL   CLEAR     76  71  85 CALM      29.98R
NWS MEMPHIS      N/A     71 N/A N/A MISG        N/A
JACKSON        CLEAR     69  67  93 CALM      29.99R FOG
LEXINGTON      MOCLDY    66  66 100 CALM      29.99R VSB 3/4
DYERSBURG      CLEAR     70  70 100 CALM      29.99S
UNION CITY     CLEAR    N/A N/A N/A CALM      29.98S
PARIS          CLEAR     64  64 100 CALM      30.01R


...EASTERN ARKANSAS...

CITY           SKY/WX    TMP DP  RH WIND       PRES   REMARKS
JONESBORO      CLEAR     68  67  96 CALM      29.98R
WEST MEMPHIS   CLEAR     72  72 100 CALM      29.96R
BATESVILLE     CLEAR     68  66  94 CALM      29.99R
NEWPORT        CLEAR     71  71 100 NE5       29.99R
WALNUT RIDGE   CLEAR     70  66  88 CALM      29.98S
BLYTHEVILLE    CLEAR     71  70  96 CALM      29.98R
SEARCY         CLEAR     69  68  96 CALM      29.99R
STUTTGART      CLEAR     72  64  78 CALM      29.97R
PINE BLUFF     CLEAR     71  69  93 CALM      29.96R
MONTICELLO     CLEAR     73  71  93 CALM      29.96R


...NORTH MISSISSIPPI...

CITY           SKY/WX    TMP DP  RH WIND       PRES   REMARKS
TUPELO         CLEAR     72  69  90 CALM      29.98R
OXFORD         CLEAR     66  66 100 CALM      30.00R
OLIVE BRANCH   CLEAR     72  72 100 CALM      29.99R
TUNICA           N/A    N/A N/A N/A MISG        N/A
CLARKSDALE       N/A     68  68 100 CALM      29.98R
CORINTH        CLEAR     68  66  94 CALM      29.99R FOG
GREENWOOD      CLEAR     71  67  87 S3        29.97R
COLUMBUS       CLEAR     69  67  95 CALM      29.97R
STARKVILLE     FAIR      68  66  94 CALM      29.99R FOG
GOLDEN TRIANGL CLEAR     70  64  83 S5        29.98R


...SOUTHEAST MISSOURI...

CITY           SKY/WX    TMP DP  RH WIND       PRES   REMARKS
WEST PLAINS    CLEAR     68  65  90 CALM      30.03S
POPLAR BLUFF   CLEAR     67  66  97 CALM      29.98R FOG
CAPE GIRARDEAU CLEAR     66  65  96 CALM      29.99R FOG


...NORTHWEST ALABAMA...

CITY           SKY/WX    TMP DP  RH WIND       PRES   REMARKS
MUSCLE SHOALS  CLEAR     70  67  90 CALM      30.01R FOG


...MIDDLE TENNESSEE...

CITY           SKY/WX    TMP DP  RH WIND       PRES   REMARKS
NASHVILLE      CLEAR     72  68  87 CALM      30.02R
CLARKSVILLE    CLEAR     66  65  96 N3        30.00S FOG
COLUMBIA       CLEAR    N/A N/A N/A CALM      30.00R


...WESTERN KENTUCKY...

CITY           SKY/WX    TMP DP  RH WIND       PRES   REMARKS
PADUCAH        PTCLDY    66  64  93 CALM      29.99S FOG
FORT CAMPBELL  CLEAR     69  66  91 E2        30.00R


...CENTRAL ARKANSAS...

CITY           SKY/WX    TMP DP  RH WIND       PRES   REMARKS
LITTLE ROCK    PTCLDY    73  69  87 CALM      29.97R


SKY/WX REPORTED AS FAIR MEANS FEW OR NO CLOUDS BELOW
12 THOUSAND FEET.



USA.gov is the U.S. government's official web portal to all federal, state and local government web resources and services.